Lid_Strength_Index
12 14 15 14 14 15 15 16 16 16 14 15 15 15 16 15 15 16 16 16 16 16 15 15 15 15 14 14 13 13 12 11 10 9 9 9 11 10 11 11 12 11 11 10
15 17 14 14 14 15 16 17 17 15 15 15 16 16 16 16 16 15 16 16 16 16 15 15 15 15 15 15 14 14 13 12 11 10 11 11 11 12 12 13 13 13 12 12
17 15 14 14 16 16 16 17 17 16 16 16 17 17 17 16 16 15 15 15 15 16 16 16 16 16 16 16 16 15 14 13 12 11 11 11 12 13 14 14 14 14 14 13
16 14 14 16 16 15 17 15 15 16 17 19 17 20 17 17 17 16 16 16 16 16 16 16 16 16 16 16 15 15 14 14 14 13 14 14 15 16 15 15 14 14 13 14
15 15 15 16 15 14 16 15 16 17 18 19 19 19 18 17 18 17 17 16 16 16 16 17 17 16 16 16 16 15 15 15 14 14 14 14 15 15 15 15 14 14 14 14
14 14 14 14 15 14 15 16 17 19 19 22 18 18 18 18 17 16 16 16 16 16 16 16 16 16 16 16 15 15 15 15 15 15 15 15 15 15 15 15 15 14 14 14
16 16 15 15 16 15 16 17 20 22 22 21 19 19 17 16 15 15 16 16 16 16 16 17 17 17 16 16 16 15 15 16 15 15 15 15 15 15 15 15 14 14 14 14
17 19 16 15 15 16 17 16 19 23 23 21 18 20 16 15 15 15 14 15 15 16 16 16 16 17 16 16 15 15 15 15 15 15 15 14 14 14 14 14 14 14 14 14
18 17 16 15 15 15 17 18 16 20 23 22 19 18 16 16 16 16 16 15 15 16 16 15 16 16 16 16 16 15 16 15 15 15 15 15 14 14 15 14 14 14 14 13
15 18 16 16 15 15 16 15 18 19 24 25 21 20 18 17 17 17 16 15 15 15 15 15 15 16 16 16 16 16 15 15 15 15 14 14 15 14 14 14 14 14 14 13
15 16 17 16 17 16 16 17 17 17 19 23 25 21 17 16 16 16 15 14 14 14 14 15 15 15 15 16 16 16 15 15 15 14 14 14 14 14 14 14 14 14 14 14
14 16 20 18 16 16 16 16 16 19 21 21 21 20 16 15 15 15 14 14 14 14 14 14 15 15 16 16 16 15 15 15 14 14 14 14 14 14 14 14 14 14 15 14
14 16 21 20 17 17 17 16 16 17 19 22 22 21 15 15 15 15 14 14 14 14 14 14 15 15 15 15 15 15 15 15 14 14 14 14 14 14 14 14 14 14 15 15
11 16 16 17 17 16 18 17 16 16 21 20 18 18 16 15 15 14 14 14 14 14 14 14 15 15 15 15 15 15 15 14 14 14 14 13 13 13 13 14 15 16 16 16
13 15 18 18 18 18 18 17 17 17 16 18 17 17 16 13 13 13 14 14 14 14 15 15 14 14 15 15 15 15 15 14 14 13 13 13 13 13 14 15 15 16 16 16
15 17 18 20 19 19 19 18 17 16 17 16 17 16 13 13 14 15 14 14 14 14 14 14 14 14 14 14 14 14 14 14 13 13 13 13 13 14 15 16 16 16 16 17
15 18 17 19 21 20 19 19 18 18 18 15 18 14 16 16 15 14 14 15 15 15 14 14 14 14 13 12 12 13 13 13 13 13 13 14 15 16 16 16 16 17 17 17
17 17 17 24 22 23 20 22 19 17 16 17 19 20 16 16 16 16 15 15 15 15 14 13 13 14 13 13 13 13 13 13 13 14 15 15 17 17 16 17 17 17 17 17
18 17 22 22 23 20 21 22 21 19 19 17 16 16 17 18 18 18 16 16 15 15 14 13 12 13 13 13 13 14 14 14 14 15 15 16 17 18 17 19 18 17 18 18
17 17 17 23 22 23 22 21 19 18 22 20 15 18 19 18 21 18 17 16 15 15 14 13 13 13 14 14 14 15 15 15 15 15 15 16 17 19 19 18 19 18 19 18
20 20 19 21 21 20 19 19 18 21 20 20 18 18 19 19 17 16 16 16 15 14 14 13 14 14 13 14 15 14 15 15 15 16 16 17 17 19 19 19 19 20 20 19
20 20 20 20 22 22 19 19 19 17 17 17 18 17 18 17 16 16 15 15 14 14 14 13 14 14 14 14 15 15 15 16 17 17 17 19 20 19 19 23 21 21 22 22
20 18 19 18 18 18 17 17 16 15 16 17 17 17 16 16 16 16 15 15 14 14 14 14 14 14 16 16 15 15 16 17 18 19 21 22 21 19 20 22 21 20 20 22
20 19 20 19 19 18 17 16 15 15 15 15 15 15 16 16 15 15 15 14 14 14 14 15 16 15 15 17 16 17 17 18 22 22 21 21 21 20 20 19 19 21 21 21
18 18 20 20 18 17 16 15 14 15 15 15 15 15 15 15 15 14 14 14 14 14 15 15 15 14 15 18 19 19 19 21 22 22 21 20 20 20 20 20 20 19 18 19
18 19 20 20 16 16 15 13 13 14 14 13 14 15 14 14 14 14 14 13 14 14 16 16 16 17 19 19 20 22 22 21 22 21 20 20 20 20 20 20 20 16 13 12